EW1134 Weather Reports


Display with metric or nautical units.
time (UTC)temp
F
wind
direction
speed
MPH
gust
MPH
rain 1hr
in
rain 24hr
in
rain mn
in
humidity
%
barometer
mb
20260902004504 73 256 2.0 6.0 0.00 0.00 0.00 50 1015.0
20260902003503 74 225 2.0 6.0 0.00 0.00 0.00 50 1015.0
20260902003004 74 228 2.0 6.0 0.00 0.00 0.00 50 1014.9
20260902002504 74 248 1.0 5.0 0.00 0.00 0.00 51 1015.1
20260902001004 74 265 1.0 4.0 0.00 0.00 0.00 50 1015.0
20260902000004 74 217 1.0 4.0 0.00 0.00 0.00 50 1015.0
20260901235503 74 255 1.0 4.0 0.00 0.00 0.00 50 1014.9
20260901235004 74 254 1.0 4.0 0.00 0.00 0.00 50 1014.9
20260901234504 74 248 1.0 4.0 0.00 0.00 0.00 50 1014.9
20260901233004 74 230 1.0 4.0 0.00 0.00 0.00 50 1014.9
20260901232503 74 236 0.0 3.0 0.00 0.00 0.00 49 1015.0
20260901232004 74 236 0.0 3.0 0.00 0.00 0.00 49 1015.0
20260901231504 74 194 0.0 4.0 0.00 0.00 0.00 48 1015.2
20260901231003 74 205 1.0 4.0 0.00 0.00 0.00 48 1015.0
20260901230504 75 234 1.0 4.0 0.00 0.00 0.00 48 1015.1
20260901230005 75 253 1.0 3.0 0.00 0.00 0.00 48 1015.1
20260901225504 75 231 1.0 4.0 0.00 0.00 0.00 47 1015.0
20260901225003 75 232 1.0 4.0 0.00 0.00 0.00 47 1015.1
20260901224504 75 246 0.0 3.0 0.00 0.00 0.00 47 1015.0
20260901224004 75 245 0.0 3.0 0.00 0.00 0.00 47 1015.0
20260901223504 75 245 0.0 3.0 0.00 0.00 0.00 47 1014.9
20260901223005 76 226 0.0 3.0 0.00 0.00 0.00 47 1015.2
20260901222004 75 188 0.0 2.0 0.00 0.00 0.00 47 1015.1
20260901221504 76 0 0.0 0.0 0.00 0.00 0.00 46 1015.1
20260901221003 76 0 0.0 0.0 0.00 0.00 0.00 46 1015.2
20260901220504 76 0 0.0 0.0 0.00 0.00 0.00 46 1015.1
20260901220004 76 225 0.0 2.0 0.00 0.00 0.00 46 1015.2
20260901215503 76 209 0.0 3.0 0.00 0.00 0.00 46 1015.2
20260901215003 76 198 0.0 3.0 0.00 0.00 0.00 46 1015.0
20260901214504 76 135 0.0 2.0 0.00 0.00 0.00 46 1015.0
20260901214004 76 135 0.0 2.0 0.00 0.00 0.00 46 1015.0
20260901213503 76 135 0.0 2.0 0.00 0.00 0.00 46 1014.8
20260901213004 76 0 0.0 0.0 0.00 0.00 0.00 45 1014.8
20260901212503 77 181 0.0 2.0 0.00 0.00 0.00 45 1015.0
20260901211504 77 220 0.0 3.0 0.00 0.00 0.00 45 1014.9
20260901211003 77 203 0.0 3.0 0.00 0.00 0.00 45 1014.9
20260901205504 78 253 1.0 4.0 0.00 0.00 0.00 44 1015.0
20260901205004 78 250 1.0 4.0 0.00 0.00 0.00 44 1014.9
20260901204504 78 242 1.0 4.0 0.00 0.00 0.00 44 1014.8
20260901204004 78 243 1.0 4.0 0.00 0.00 0.00 44 1015.0
20260901203504 78 236 1.0 4.0 0.00 0.00 0.00 44 1014.8
20260901203004 78 235 1.0 4.0 0.00 0.00 0.00 44 1014.8
20260901202003 78 230 1.0 4.0 0.00 0.00 0.00 43 1014.8
20260901201504 78 221 1.0 4.0 0.00 0.00 0.00 43 1014.8
20260901200504 79 216 1.0 4.0 0.00 0.00 0.00 42 1014.8
20260901195504 79 241 1.0 4.0 0.00 0.00 0.00 42 1014.9
20260901195004 79 224 1.0 4.0 0.00 0.00 0.00 42 1014.8
20260901193504 80 224 1.0 4.0 0.00 0.00 0.00 41 1014.8
20260901193004 80 226 1.0 4.0 0.00 0.00 0.00 41 1014.9
20260901192503 80 230 2.0 4.0 0.00 0.00 0.00 40 1014.8
20260901192003 80 228 2.0 4.0 0.00 0.00 0.00 40 1014.8
20260901191504 81 225 3.0 4.0 0.00 0.00 0.00 40 1014.8
20260901191003 81 225 2.0 4.0 0.00 0.00 0.00 39 1014.8
20260901190005 82 234 1.0 3.0 0.00 0.00 0.00 38 1014.7
20260901185003 82 181 0.0 2.0 0.00 0.00 0.00 39 1014.7
20260901184504 82 196 0.0 3.0 0.00 0.00 0.00 39 1014.6
20260901184004 83 212 1.0 3.0 0.00 0.00 0.00 38 1014.5
20260901183004 83 201 1.0 4.0 0.00 0.00 0.00 38 1014.5
20260901182503 83 172 1.0 3.0 0.00 0.00 0.00 38 1014.6
20260901182003 83 148 0.0 3.0 0.00 0.00 0.00 38 1014.4
20260901181504 83 99 0.0 2.0 0.00 0.00 0.00 38 1014.4
20260901181004 83 68 0.0 2.0 0.00 0.00 0.00 38 1014.3
20260901180503 84 79 0.0 2.0 0.00 0.00 0.00 38 1014.3
20260901180004 84 90 0.0 1.0 0.00 0.00 0.00 37 1014.2
20260901175503 84 50 0.0 2.0 0.00 0.00 0.00 37 1014.1
20260901175003 84 43 0.0 3.0 0.00 0.00 0.00 37 1014.1
20260901174503 84 45 1.0 3.0 0.00 0.00 0.00 36 1014.1
20260901174004 85 51 0.0 3.0 0.00 0.00 0.00 36 1014.1
20260901173504 85 71 0.0 3.0 0.00 0.00 0.00 36 1013.9
20260901173005 85 90 0.0 3.0 0.00 0.00 0.00 35 1014.0
20260901172504 86 95 0.0 2.0 0.00 0.00 0.00 34 1013.8
20260901172003 86 86 1.0 4.0 0.00 0.00 0.00 34 1013.8
20260901171504 86 73 1.0 4.0 0.00 0.00 0.00 34 1013.8
20260901171003 86 87 2.0 4.0 0.00 0.00 0.00 33 1013.7
20260901170504 87 114 1.0 4.0 0.00 0.00 0.00 33 1013.8
20260901165504 87 93 2.0 4.0 0.00 0.00 0.00 32 1013.6
20260901165004 87 108 2.0 5.0 0.00 0.00 0.00 32 1013.7
20260901164504 87 110 2.0 5.0 0.00 0.00 0.00 32 1013.7
20260901164003 88 99 3.0 7.0 0.00 0.00 0.00 31 1013.7
20260901163004 88 85 4.0 7.0 0.00 0.00 0.00 31 1013.6
20260901162504 88 100 4.0 9.0 0.00 0.00 0.00 31 1013.7
20260901162003 89 117 4.0 9.0 0.00 0.00 0.00 31 1013.5
20260901161004 89 67 4.0 9.0 0.00 0.00 0.00 30 1013.4
20260901155504 91 72 5.0 8.0 0.00 0.00 0.00 29 1013.4
20260901155004 91 62 4.0 8.0 0.00 0.00 0.00 29 1013.4
20260901154504 91 54 3.0 8.0 0.00 0.00 0.00 29 1013.2
20260901153004 91 70 5.0 10.0 0.00 0.00 0.00 28 1013.1
20260901152503 91 89 4.0 9.0 0.00 0.00 0.00 28 1013.1
20260901152004 91 94 4.0 9.0 0.00 0.00 0.00 28 1013.1
20260901151504 92 87 5.0 10.0 0.00 0.00 0.00 28 1013.1
20260901151004 92 79 6.0 11.0 0.00 0.00 0.00 28 1013.1
20260901150004 92 39 4.0 9.0 0.00 0.00 0.00 28 1013.1
20260901145504 93 17 4.0 9.0 0.00 0.00 0.00 27 1013.2
20260901145003 93 19 4.0 9.0 0.00 0.00 0.00 27 1013.3
20260901144504 93 39 4.0 9.0 0.00 0.00 0.00 27 1013.2
20260901144004 93 59 3.0 8.0 0.00 0.00 0.00 27 1013.1
20260901143503 93 78 2.0 6.0 0.00 0.00 0.00 27 1013.1
20260901143004 92 72 4.0 9.0 0.00 0.00 0.00 27 1013.1
20260901142503 92 70 4.0 9.0 0.00 0.00 0.00 27 1013.3
20260901142003 93 66 4.0 9.0 0.00 0.00 0.00 27 1013.3
20260901141504 93 56 4.0 9.0 0.00 0.00 0.00 27 1013.4
20260901141003 93 48 4.0 11.0 0.00 0.00 0.00 27 1013.3
20260901140504 93 69 4.0 11.0 0.00 0.00 0.00 26 1013.3
20260901140004 93 62 4.0 9.0 0.00 0.00 0.00 27 1013.3
20260901135003 93 73 5.0 11.0 0.00 0.00 0.00 27 1013.3
20260901134504 93 50 4.0 9.0 0.00 0.00 0.00 27 1013.3
20260901133004 93 34 5.0 10.0 0.00 0.00 0.00 27 1013.5
20260901132503 93 51 4.0 9.0 0.00 0.00 0.00 27 1013.4
20260901132004 93 72 4.0 9.0 0.00 0.00 0.00 27 1013.6
20260901131504 94 83 5.0 9.0 0.00 0.00 0.00 26 1013.6
20260901131004 94 32 5.0 15.0 0.00 0.00 0.00 26 1013.5
20260901130504 94 9 5.0 15.0 0.00 0.00 0.00 27 1013.5
20260901130004 94 27 4.0 15.0 0.00 0.00 0.00 27 1013.6
20260901125503 94 42 4.0 10.0 0.00 0.00 0.00 27 1013.6
20260901125004 94 34 4.0 11.0 0.00 0.00 0.00 26 1013.6
20260901124003 94 39 4.0 10.0 0.00 0.00 0.00 26 1013.8
20260901123503 94 30 4.0 8.0 0.00 0.00 0.00 27 1013.7
20260901123004 94 38 5.0 10.0 0.00 0.00 0.00 27 1013.9
20260901122504 93 58 6.0 13.0 0.00 0.00 0.00 27 1013.9
20260901122004 94 73 5.0 13.0 0.00 0.00 0.00 27 1013.9
20260901121504 93 74 4.0 10.0 0.00 0.00 0.00 28 1013.9
20260901115503 94 346 5.0 13.0 0.00 0.00 0.00 28 1014.0
20260901115003 94 14 4.0 12.0 0.00 0.00 0.00 28 1014.1
20260901114503 93 50 5.0 10.0 0.00 0.00 0.00 28 1014.1
20260901113004 93 94 3.0 7.0 0.00 0.00 0.00 29 1013.9
20260901112503 93 93 3.0 7.0 0.00 0.00 0.00 29 1014.2
20260901112003 93 59 3.0 8.0 0.00 0.00 0.00 30 1014.1
20260901111504 92 28 4.0 9.0 0.00 0.00 0.00 29 1014.2
20260901111004 92 51 5.0 9.0 0.00 0.00 0.00 29 1014.3
20260901110504 92 80 4.0 8.0 0.00 0.00 0.00 29 1014.3
20260901110004 93 54 3.0 10.0 0.00 0.00 0.00 29 1014.3
20260901105003 92 21 4.0 13.0 0.00 0.00 0.00 30 1014.3
20260901104003 92 40 4.0 9.0 0.00 0.00 0.00 31 1014.4
20260901103503 92 22 4.0 13.0 0.00 0.00 0.00 31 1014.4
20260901103004 92 5 4.0 13.0 0.00 0.00 0.00 31 1014.5
20260901102504 92 14 3.0 9.0 0.00 0.00 0.00 31 1014.6
20260901102003 91 38 4.0 9.0 0.00 0.00 0.00 31 1014.7
20260901101504 91 70 4.0 9.0 0.00 0.00 0.00 32 1014.7
20260901101004 90 66 3.0 8.0 0.00 0.00 0.00 32 1014.7
20260901095504 90 36 4.0 8.0 0.00 0.00 0.00 31 1014.8
20260901095003 90 39 4.0 9.0 0.00 0.00 0.00 31 1014.9
20260901093503 90 29 3.0 7.0 0.00 0.00 0.00 33 1014.9
20260901093004 89 83 4.0 10.0 0.00 0.00 0.00 32 1014.9
20260901092503 90 94 4.0 10.0 0.00 0.00 0.00 32 1014.8
20260901091504 90 35 3.0 10.0 0.00 0.00 0.00 31 1014.7
20260901091004 90 2 3.0 9.0 0.00 0.00 0.00 31 1014.8
20260901090503 90 339 3.0 9.0 0.00 0.00 0.00 31 1014.8
20260901085503 90 46 3.0 8.0 0.00 0.00 0.00 31 1014.7
20260901085003 90 67 2.0 8.0 0.00 0.00 0.00 31 1014.7
20260901084504 90 10 4.0 10.0 0.00 0.00 0.00 31 1014.8
20260901083504 89 321 3.0 10.0 0.00 0.00 0.00 31 1014.8
20260901082503 89 18 3.0 9.0 0.00 0.00 0.00 31 1014.8
20260901082003 89 19 3.0 9.0 0.00 0.00 0.00 31 1015.0
20260901081504 89 8 3.0 7.0 0.00 0.00 0.00 33 1014.9
20260901081003 89 13 2.0 7.0 0.00 0.00 0.00 32 1014.9
20260901080503 88 17 3.0 9.0 0.00 0.00 0.00 32 1015.0
20260901080004 88 8 4.0 9.0 0.00 0.00 0.00 33 1014.9
20260901075504 87 3 4.0 9.0 0.00 0.00 0.00 33 1014.9
20260901075003 87 350 3.0 8.0 0.00 0.00 0.00 34 1014.9
20260901074503 87 10 2.0 5.0 0.00 0.00 0.00 35 1014.8
20260901074004 87 14 3.0 7.0 0.00 0.00 0.00 35 1014.9
20260901073503 87 350 2.0 7.0 0.00 0.00 0.00 35 1014.8
20260901073004 86 334 1.0 7.0 0.00 0.00 0.00 35 1015.0
20260901072503 86 16 2.0 5.0 0.00 0.00 0.00 37 1015.0
20260901072003 86 37 2.0 5.0 0.00 0.00 0.00 36 1014.9
20260901071503 85 356 2.0 4.0 0.00 0.00 0.00 37 1014.9
20260901070503 84 339 1.0 6.0 0.00 0.00 0.00 40 1014.7
20260901065003 82 211 1.0 4.0 0.00 0.00 0.00 42 1014.7
20260901064504 81 199 1.0 4.0 0.00 0.00 0.00 44 1014.7
20260901064003 80 212 2.0 4.0 0.00 0.00 0.00 44 1014.8
20260901063503 80 220 2.0 5.0 0.00 0.00 0.00 45 1014.6
20260901062503 78 235 2.0 6.0 0.00 0.00 0.00 46 1014.8
20260901062004 78 223 4.0 7.0 0.00 0.00 0.00 46 1014.8
20260901061503 77 226 3.0 7.0 0.00 0.00 0.00 46 1014.8
20260901061003 77 241 1.0 6.0 0.00 0.00 0.00 46 1014.9
20260901060003 76 202 1.0 5.0 0.00 0.00 0.00 47 1014.9
20260901055004 75 185 1.0 4.0 0.00 0.00 0.00 48 1014.9
20260901054503 75 181 1.0 4.0 0.00 0.00 0.00 49 1015.0
20260901054003 74 201 1.0 4.0 0.00 0.00 0.00 49 1015.1
20260901053503 73 230 1.0 4.0 0.00 0.00 0.00 50 1014.9
20260901053004 73 221 1.0 4.0 0.00 0.00 0.00 50 1014.9
20260901052003 72 299 0.0 3.0 0.00 0.00 0.00 52 1015.0
20260901051503 72 185 0.0 2.0 0.00 0.00 0.00 52 1015.0
20260901051004 72 181 0.0 4.0 0.00 0.00 0.00 52 1015.0
20260901050503 71 181 1.0 4.0 0.00 0.00 0.00 52 1014.9
20260901050003 71 198 0.0 2.0 0.00 0.00 0.00 52 1014.9
20260901045003 70 257 0.0 2.0 0.00 0.00 0.00 53 1014.7
20260901044506 70 258 0.0 2.0 0.00 0.00 0.00 54 1014.8
20260901044003 70 231 0.0 3.0 0.00 0.00 0.00 54 1014.8
20260901043503 70 226 0.0 3.0 0.00 0.00 0.00 54 1014.7
20260901042504 69 236 1.0 4.0 0.00 0.00 0.00 54 1014.8
20260901042003 69 225 1.0 4.0 0.00 0.00 0.00 54 1014.7
20260901041503 69 239 0.0 4.0 0.00 0.00 0.00 54 1014.6
20260901041003 69 243 1.0 4.0 0.00 0.00 0.00 54 1014.6
20260901035503 69 230 1.0 5.0 0.00 0.00 0.00 54 1014.4
20260901034503 69 234 1.0 4.0 0.00 0.00 0.00 53 1014.5
20260901034003 69 241 0.0 4.0 0.00 0.00 0.00 53 1014.4
20260901033503 69 229 1.0 4.0 0.00 0.00 0.00 53 1014.3
20260901033004 69 228 1.0 4.0 0.00 0.00 0.00 53 1014.3
20260901032503 69 229 1.0 3.0 0.00 0.00 0.00 53 1014.2
20260901032003 69 227 1.0 4.0 0.00 0.00 0.00 52 1014.2
20260901031003 69 192 0.0 4.0 0.00 0.00 0.00 52 1014.3
20260901030503 69 219 1.0 4.0 0.00 0.00 0.00 52 1014.3
20260901030004 69 250 2.0 5.0 0.00 0.00 0.00 53 1014.2
20260901025503 69 252 1.0 5.0 0.00 0.00 0.00 53 1014.2
20260901025003 69 230 0.0 5.0 0.00 0.00 0.00 52 1014.3
20260901024504 69 208 0.0 2.0 0.00 0.00 0.00 51 1014.3
20260901024004 69 226 0.0 2.0 0.00 0.00 0.00 51 1014.3
20260901023004 69 177 0.0 2.0 0.00 0.00 0.00 50 1014.2
20260901022503 69 207 0.0 4.0 0.00 0.00 0.00 50 1014.4
20260901022003 69 239 1.0 4.0 0.00 0.00 0.00 50 1014.3
20260901021504 69 269 1.0 4.0 0.00 0.00 0.00 50 1014.2
20260901021003 69 243 1.0 4.0 0.00 0.00 0.00 50 1014.3
20260901020503 70 217 1.0 4.0 0.00 0.00 0.00 50 1014.2
20260901020004 70 207 1.0 4.0 0.00 0.00 0.00 49 1014.2
20260901015503 70 204 1.0 4.0 0.00 0.00 0.00 49 1014.3
20260901015004 70 221 1.0 4.0 0.00 0.00 0.00 49 1014.3
20260901014504 71 221 1.0 4.0 0.00 0.00 0.00 49 1014.3
20260901014003 71 208 1.0 4.0 0.00 0.00 0.00 49 1014.4
20260901013503 71 229 1.0 4.0 0.00 0.00 0.00 49 1014.3
20260901013003 71 270 1.0 4.0 0.00 0.00 0.00 49 1014.4
20260901012503 71 306 0.0 3.0 0.00 0.00 0.00 49 1014.4
20260901012004 71 245 0.0 2.0 0.00 0.00 0.00 49 1014.4
20260901011504 71 213 0.0 2.0 0.00 0.00 0.00 49 1014.1
20260901011004 71 219 1.0 4.0 0.00 0.00 0.00 49 1014.2
20260901010504 71 225 1.0 4.0 0.00 0.00 0.00 48 1014.2
20260901010004 70 220 0.0 4.0 0.00 0.00 0.00 49 1014.3
20260901005503 71 212 0.0 1.0 0.00 0.00 0.00 48 1014.3
20260901005003 71 225 0.0 2.0 0.00 0.00 0.00 48 1014.2